Lapse_Rate
6.3 6.4 6.3 6.2 6.4 6.4 5.6 5.8 5.3 5.6 5.9 6.7 6.9 7.4 7.8 7.8 7.7 7.7 7.6 7.5 7.0 6.6 6.3 6.1 5.9 6.0 6.0 6.1 6.2 6.2 6.2 6.2 6.3 6.2 6.1 5.9 5.7 5.6 5.6 5.7 5.7 5.7 5.7 5.7
6.3 6.4 6.3 6.0 6.0 5.9 5.7 5.9 5.4 5.9 5.9 6.1 6.6 6.9 7.2 7.6 7.7 7.5 7.1 6.8 6.9 6.8 6.4 6.1 5.9 5.8 5.7 5.9 6.0 6.0 6.2 6.2 6.2 6.3 6.4 6.1 5.7 5.6 5.7 5.9 5.8 5.6 5.6 5.5
5.6 5.9 5.9 5.4 5.8 5.7 5.9 6.0 6.2 6.0 6.7 7.3 7.3 7.5 7.3 7.0 6.9 6.5 6.5 6.7 6.7 6.9 6.5 6.1 5.8 5.6 5.7 5.4 5.5 5.8 5.9 6.1 6.2 6.2 6.2 5.9 5.8 5.8 6.0 5.9 5.5 5.4 5.3 5.3
5.5 5.7 4.8 5.5 5.7 6.3 6.4 6.4 6.4 6.6 6.7 6.8 6.6 6.8 6.6 6.6 6.4 6.3 6.3 6.3 6.4 6.4 6.5 6.6 6.1 5.9 5.8 5.9 6.1 6.1 6.0 6.1 6.2 6.2 6.2 6.1 5.9 5.7 5.7 5.6 5.4 5.2 5.2 5.2
5.5 5.6 5.9 5.8 5.3 5.6 6.2 6.5 6.7 6.3 6.5 6.7 6.6 6.3 6.2 6.2 6.2 6.0 6.0 5.9 5.8 5.9 6.0 6.0 6.1 6.0 6.0 6.0 6.2 6.1 6.1 5.9 6.0 5.9 5.8 6.0 5.9 5.7 5.6 5.6 5.5 5.5 5.5 5.5
5.6 5.5 5.1 5.1 5.8 6.3 6.1 5.0 5.7 5.9 6.2 6.4 6.2 6.0 6.4 6.3 6.2 5.9 5.7 6.0 6.1 6.2 6.3 6.3 6.3 6.4 6.4 6.4 6.2 6.0 6.0 5.9 5.9 5.8 5.5 5.7 5.6 5.5 5.5 5.6 5.7 5.7 5.7 5.8
5.2 5.7 5.2 5.2 5.5 5.6 5.2 5.3 5.8 6.1 6.4 6.6 6.2 6.0 6.2 6.3 6.2 6.1 5.9 6.0 6.0 6.1 6.1 6.3 6.6 6.6 6.5 6.5 6.4 6.1 6.0 5.9 5.9 5.9 5.7 5.6 5.7 5.8 5.9 5.9 6.0 5.9 5.8 5.7
5.2 5.6 5.4 4.9 5.4 5.5 5.7 5.9 5.7 5.8 5.8 5.9 5.9 5.7 5.7 5.5 5.7 6.0 6.0 5.9 5.9 5.9 6.0 6.0 6.1 6.2 6.4 6.5 6.5 6.1 5.8 5.7 5.8 5.8 5.7 5.7 5.6 5.6 5.7 5.8 5.8 5.9 5.9 5.9
6.4 6.4 6.9 6.5 5.6 5.5 5.3 5.6 5.8 5.7 5.6 5.6 5.6 5.5 5.4 5.3 5.4 5.5 5.6 5.5 5.5 5.5 5.5 5.5 5.5 5.5 5.7 6.0 6.3 6.3 6.1 5.8 5.7 5.6 5.6 5.7 5.7 5.8 5.8 5.9 5.9 5.8 5.9 6.0
6.7 6.1 6.4 6.4 6.4 6.2 5.8 5.4 5.6 5.8 5.8 5.7 5.5 5.5 5.5 5.4 5.3 5.3 5.5 5.6 5.3 5.2 5.3 5.4 5.7 5.8 5.7 5.7 5.8 5.8 5.8 5.9 5.9 6.0 6.1 6.2 6.2 6.1 6.2 6.2 6.2 6.2 6.2 6.2
6.6 6.6 6.6 6.7 6.6 6.4 6.5 6.3 6.1 6.0 6.0 5.7 5.6 5.5 5.5 5.4 5.4 5.3 5.4 5.3 5.3 5.2 5.3 5.5 5.6 5.8 6.0 5.9 5.7 5.8 5.9 5.9 6.0 6.0 6.1 6.2 6.1 6.0 5.9 5.9 6.0 6.1 6.1 6.1
6.8 6.8 7.0 6.9 6.8 6.7 6.5 6.3 6.2 6.1 5.9 5.8 5.8 5.8 5.8 5.6 5.5 5.5 5.3 5.1 4.8 4.7 4.9 5.1 5.2 5.4 5.4 5.5 5.6 5.7 5.8 5.8 5.8 5.8 5.8 5.9 5.9 6.1 6.0 5.9 5.9 5.9 5.9 6.0
6.8 6.7 6.5 6.5 6.6 6.5 6.3 6.1 5.9 5.9 5.9 5.7 5.6 5.4 5.3 5.3 5.3 5.4 5.3 5.0 4.9 4.8 4.8 5.0 5.3 5.4 5.3 5.2 5.3 5.3 5.4 5.5 5.5 5.6 5.6 5.7 5.7 5.8 5.8 5.9 5.9 5.8 5.8 5.7
6.4 6.4 6.5 6.5 6.4 6.2 6.0 5.8 5.6 5.5 5.4 5.4 5.4 5.4 5.4 5.4 5.3 5.2 5.2 5.4 5.4 5.2 4.8 4.7 4.8 5.1 5.3 5.4 5.4 5.5 5.6 5.8 5.9 6.0 6.0 6.0 5.9 5.7 5.6 5.6 5.8 5.8 5.7 5.7
6.6 6.5 6.5 6.6 6.7 6.6 6.5 6.5 6.4 6.3 6.1 6.0 6.0 5.9 5.7 5.3 5.2 5.4 5.3 5.3 5.4 5.4 5.4 5.4 5.3 5.3 5.4 5.6 5.7 5.7 5.7 5.9 6.1 6.1 6.2 6.3 6.2 6.1 6.0 6.0 5.9 5.8 5.8 5.7
5.8 6.1 6.1 6.1 5.9 6.0 5.9 5.8 5.9 6.1 6.2 6.2 6.1 5.8 5.7 5.6 5.7 5.8 5.8 5.7 5.7 5.7 5.6 5.6 5.7 5.9 6.0 6.2 6.3 6.1 6.1 6.1 6.0 5.8 6.0 6.1 6.1 6.2 6.1 6.0 5.9 5.8 5.7 5.6
4.5 4.7 4.8 5.0 5.2 5.1 5.2 5.4 5.6 5.9 6.0 6.0 5.9 5.8 5.8 5.8 5.7 5.8 5.8 5.8 5.7 5.7 5.8 5.7 5.7 5.7 5.7 5.8 5.9 5.9 5.8 5.7 5.7 5.6 5.6 5.6 5.5 5.4 5.5 5.5 5.5 5.2 5.2 5.0
3.5 3.7 3.9 4.1 4.2 4.1 4.1 4.6 5.0 5.2 5.3 5.4 5.4 5.5 5.7 5.7 5.6 5.5 5.4 5.6 5.8 5.8 5.7 5.8 5.7 5.6 5.7 5.7 5.7 5.6 5.6 5.6 5.5 5.4 5.2 5.3 5.4 5.6 5.6 5.5 5.5 5.7 5.4 5.4
3.1 3.3 3.5 3.6 3.8 4.1 4.1 3.9 3.9 4.1 4.4 4.9 5.3 5.6 5.8 5.8 6.0 6.1 6.2 6.2 6.2 6.3 6.3 6.3 6.2 6.2 6.1 6.0 6.0 5.9 5.8 5.9 6.0 6.0 6.0 6.1 6.1 6.1 6.3 6.2 6.1 6.1 6.3 6.3
3.1 3.2 3.4 3.7 3.8 4.0 4.2 4.4 4.6 4.7 4.7 5.0 5.2 5.3 5.6 5.7 5.9 6.1 6.3 6.6 6.6 6.6 6.6 6.6 6.7 6.7 6.5 6.3 6.2 6.1 6.1 6.1 6.1 6.2 6.3 6.4 6.6 6.8 6.7 6.4 6.4 6.5 6.5 6.6
2.9 3.1 3.3 3.5 3.7 3.8 4.0 4.4 4.7 4.8 4.8 4.9 5.1 5.3 5.5 5.8 6.0 6.3 6.5 6.7 6.6 6.9 6.8 6.8 6.9 6.8 6.8 6.5 6.4 6.4 6.2 6.2 6.3 6.5 6.8 6.9 6.7 6.4 6.4 6.5 6.4 6.4 6.4 6.4
3.8 3.7 3.6 3.5 3.6 3.8 3.9 4.0 4.2 4.6 5.1 5.5 5.7 5.9 6.1 6.3 6.5 6.7 7.0 7.2 7.0 6.9 7.1 7.3 7.2 7.0 6.8 6.6 6.5 6.4 6.5 6.4 6.5 6.5 6.4 6.1 6.2 6.2 6.2 6.3 6.4 6.5 6.5 6.6
4.2 4.2 4.3 4.3 4.2 4.2 4.3 4.4 4.4 4.7 5.1 5.4 5.7 5.9 6.0 6.3 6.6 6.9 7.2 6.8 7.0 6.9 7.1 7.0 6.8 6.8 6.5 6.5 6.5 6.4 6.3 6.4 6.3 6.0 5.9 6.0 6.2 6.3 6.4 6.5 6.5 6.5 6.5 6.6
3.3 3.6 3.7 3.9 4.3 4.6 4.9 5.0 4.9 5.0 5.1 5.2 5.4 5.6 5.9 6.1 6.2 6.1 6.2 6.3 6.5 6.7 7.0 7.1 6.7 6.6 6.4 6.4 6.3 6.1 6.0 5.8 5.7 6.0 6.2 6.3 6.4 6.3 6.3 6.4 6.5 6.5 6.5 6.6
2.3 2.5 2.9 3.1 3.3 3.6 4.1 4.6 5.0 5.2 5.3 5.4 5.6 5.7 5.8 6.0 6.2 6.1 6.1 6.2 6.1 6.4 6.8 6.8 6.7 6.5 6.3 6.3 6.1 5.9 5.7 5.9 6.1 6.2 6.2 6.2 6.2 6.2 6.3 6.4 6.4 6.4 6.5 6.6
1.2 1.5 1.8 1.9 2.3 2.8 3.1 3.5 4.2 4.7 5.0 5.5 5.7 5.7 5.7 5.8 6.0 6.0 6.1 6.1 6.2 6.4 6.9 6.7 6.5 6.3 6.1 5.9 5.9 6.0 6.0 6.0 6.0 6.0 6.1 6.2 6.3 6.4 6.4 6.5 6.5 6.5 6.5 6.5
0.7 0.7 1.3 1.4 1.5 2.3 2.7 3.1 3.5 4.1 4.6 4.9 5.5 5.5 5.7 5.9 5.9 5.9 5.9 6.0 6.0 6.3 6.8 6.9 6.6 6.3 6.2 5.9 5.9 6.0 6.1 6.2 6.1 6.2 6.2 6.3 6.4 6.4 6.4 6.3 6.3 6.4 6.6 6.7
Wind_Speed
1 4 4 5 6 16 16 16 9 11 13 9 3 7 4 3 2 2 4 5 7 8 6 7 10 10 11 12 13 14 15 12 15 11 8 9 9 9 7 8 8 10 8 8
2 2 2 3 7 13 17 12 17 15 18 6 11 5 8 10 9 8 7 8 8 5 8 9 11 12 12 13 14 13 15 18 13 11 11 11 9 9 9 9 8 8 8 8
4 2 3 8 12 11 6 7 11 16 18 4 7 11 10 10 9 9 10 11 7 9 10 9 11 11 13 13 11 14 15 14 13 12 14 13 9 10 13 12 8 10 8 8
3 1 5 8 1 11 20 14 19 15 12 7 6 7 7 3 6 9 8 7 7 5 5 7 5 8 7 9 12 13 14 14 13 13 13 9 8 12 10 8 11 9 10 9
4 6 10 17 3 6 8 12 14 19 20 17 13 7 8 1 4 6 5 5 4 3 4 5 6 1 5 6 8 10 13 13 12 12 12 11 12 13 8 7 8 10 7 8
4 5 12 13 12 7 5 19 11 16 18 11 4 6 2 3 3 4 6 3 5 5 4 6 6 5 4 2 3 7 6 5 6 7 7 9 10 9 6 4 8 7 9 9
15 11 8 6 7 6 9 5 1 3 3 2 4 1 2 1 5 4 3 4 4 6 5 4 6 4 5 5 4 1 3 4 5 7 8 6 6 4 5 5 6 6 8 6
9 10 17 5 2 13 2 3 4 5 4 4 5 5 4 5 5 5 6 6 6 6 5 5 6 4 5 5 1 3 6 6 4 3 3 4 6 3 2 4 4 5 4 5
10 7 5 6 7 8 9 6 5 6 7 6 7 7 6 5 7 6 5 5 5 3 4 6 6 6 5 3 3 4 5 5 4 4 4 4 4 4 3 4 4 3 4 4
4 4 7 8 10 12 11 8 9 8 9 7 5 8 8 9 7 5 3 3 3 5 5 5 5 7 5 4 4 5 5 5 4 5 4 3 2 2 3 4 2 3 3 3
2 5 6 10 10 10 8 9 10 9 6 6 5 5 4 5 7 5 5 4 4 4 4 4 4 5 4 4 4 4 3 3 3 3 4 4 3 3 1 1 3 3 2 3
1 5 4 4 7 11 10 11 10 10 9 8 7 6 6 5 4 3 3 3 3 3 3 3 4 5 4 4 3 3 3 2 1 3 3 3 4 2 6 6 6 4 6 4
3 8 3 7 6 11 9 10 10 9 8 8 7 7 7 6 8 9 6 6 5 2 2 3 3 4 3 4 3 2 3 3 3 3 1 2 3 4 5 4 7 6 6 6
6 9 2 9 5 9 9 10 12 9 8 9 8 7 5 5 6 7 6 6 5 3 2 2 2 3 4 4 4 4 2 7 3 2 2 2 1 2 1 1 2 1 3 3
9 6 3 5 5 7 7 8 9 9 10 10 9 8 6 8 7 6 5 6 6 3 2 2 1 1 3 4 3 4 3 3 3 3 2 3 3 3 3 3 2 2 2 2
9 7 5 5 6 6 7 8 7 8 8 9 10 10 9 7 6 5 4 4 4 5 3 1 2 1 2 3 2 2 2 5 4 2 2 2 2 2 1 1 1 1 1 2
6 7 10 8 8 9 8 6 5 7 7 8 8 6 9 8 7 6 4 3 4 3 3 1 3 3 1 2 2 1 1 2 6 1 2 2 2 2 2 2 2 2 3 3
3 6 6 7 9 9 9 8 7 6 5 7 6 6 7 6 6 6 5 3 4 5 4 2 2 3 2 2 1 0 1 2 2 2 2 2 2 2 2 3 3 3 3 4
4 7 7 7 6 7 7 8 7 6 6 7 6 6 6 7 6 5 4 4 4 4 5 4 8 6 5 5 5 2 2 2 1 1 1 5 3 2 3 3 4 4 5 5
7 6 7 7 6 5 8 8 8 8 8 4 6 5 6 7 6 5 4 6 6 4 2 3 4 3 5 6 9 5 4 4 4 4 3 4 4 4 4 9 7 6 7 6
9 8 8 8 8 7 7 7 7 8 8 6 6 8 8 5 5 5 3 5 5 8 5 10 5 4 2 5 6 2 4 5 5 4 4 4 4 4 3 4 5 6 7 7
6 8 7 7 7 10 7 7 7 8 7 8 9 7 8 8 6 6 7 8 5 12 3 2 3 9 6 12 3 4 3 3 3 3 5 6 6 5 6 7 8 8 8 8
9 8 10 8 8 10 7 7 10 8 10 9 8 8 7 7 5 4 6 4 5 10 5 2 9 15 17 7 6 6 7 7 7 7 6 4 4 6 7 8 8 8 9 9
11 8 7 7 7 7 10 10 8 9 8 8 7 7 6 6 6 5 7 14 19 15 5 6 10 17 18 4 5 6 7 5 4 3 4 12 6 7 7 9 10 10 10 14
11 11 6 7 9 8 9 8 8 7 7 7 8 7 7 6 7 4 3 4 13 9 5 13 18 18 6 4 2 3 3 3 3 5 7 7 8 8 9 9 11 10 11 11
12 10 8 11 10 9 8 8 7 7 6 7 5 4 4 5 6 7 5 10 6 11 7 3 2 3 4 2 3 4 4 5 8 7 8 8 8 9 10 11 11 11 11 12
8 15 8 9 7 6 7 7 8 6 7 6 6 6 5 4 5 7 10 6 6 5 5 5 5 7 3 3 4 4 5 6 11 8 8 9 9 10 11 11 11 11 11 12
Wind_Direction
108 137 147 183 181 188 206 212 191 242 220 227 296 323 26 120 146 149 216 197 209 218 203 191 192 192 197 203 196 191 196 195 203 193 179 179 187 184 177 183 187 182 181 193
290 122 181 252 207 195 218 234 259 279 271 242 277 275 311 301 304 292 283 259 247 216 200 201 203 205 196 199 199 189 199 209 197 186 187 192 186 181 182 186 184 182 189 187
257 155 158 288 209 179 184 208 201 222 240 218 240 238 245 253 251 258 257 256 249 228 218 212 206 201 201 195 179 192 202 207 203 193 196 200 184 181 196 195 180 197 191 186
185 71 228 242 255 179 205 212 216 249 233 214 224 234 223 240 250 254 256 276 291 298 261 231 197 187 176 167 183 191 202 203 201 199 204 191 183 199 198 185 189 193 199 195
190 195 282 285 200 151 166 250 214 230 246 247 257 300 292 48 16 319 26 32 23 354 342 19 24 342 155 166 181 187 202 203 197 193 195 191 196 202 194 180 188 200 191 185
192 219 240 285 218 177 109 261 205 214 233 239 160 241 214 51 26 28 35 16 16 353 26 40 5 7 106 141 155 201 198 188 157 159 173 187 196 197 193 184 202 194 200 194
222 235 264 227 169 110 165 251 317 81 50 55 144 152 207 39 47 26 35 23 26 45 51 7 345 7 95 104 71 303 132 140 157 164 171 170 166 160 170 177 181 187 194 190
218 233 249 22 54 190 178 41 90 66 25 59 69 35 15 40 74 56 32 18 20 49 38 7 2 19 77 86 107 96 102 98 86 98 113 135 148 143 137 152 156 184 164 181
189 204 72 20 69 32 10 87 49 52 26 34 67 39 16 13 34 40 34 22 16 42 50 27 17 18 73 12 44 58 73 85 91 92 94 110 119 137 133 146 161 180 195 179
130 81 89 66 52 33 31 35 26 22 34 39 21 23 16 9 12 23 31 19 350 36 64 47 41 44 48 30 47 82 92 86 77 90 87 82 106 131 169 178 157 166 169 164
50 85 105 65 45 15 19 25 22 10 16 29 31 15 9 353 6 360 357 10 17 39 61 48 51 59 37 25 69 88 89 110 136 118 127 127 110 139 149 112 156 155 166 157
18 20 318 65 41 14 14 14 3 357 358 5 21 8 354 349 329 316 1 13 30 40 64 29 46 45 28 18 77 119 122 124 129 133 149 129 125 102 138 152 140 149 171 132
11 328 280 295 72 13 5 358 338 355 340 6 2 4 357 346 337 357 10 14 10 41 91 90 80 58 357 0 13 20 115 109 120 137 96 138 151 149 139 129 142 147 166 182
28 343 132 35 340 331 357 348 344 342 357 2 3 357 350 342 333 2 4 341 325 349 30 35 52 47 354 3 20 11 17 147 82 102 101 82 93 106 118 156 146 129 98 98
6 346 274 302 342 1 354 349 351 344 344 344 348 340 347 344 334 326 324 322 329 359 23 88 109 333 352 352 32 17 80 60 69 66 73 103 52 57 68 65 75 99 34 335
333 323 28 2 356 350 344 346 335 328 328 327 328 331 336 322 302 302 299 333 353 334 248 207 197 162 345 8 36 35 33 169 136 99 101 107 98 96 116 135 167 223 208 238
344 351 342 338 336 328 328 315 298 296 305 304 301 312 314 309 301 284 271 303 307 303 313 288 169 119 15 8 351 99 35 351 183 173 169 161 166 185 200 175 194 239 241 237
280 285 283 288 303 311 312 311 303 295 277 279 289 291 294 298 288 297 292 304 306 287 261 270 134 161 219 221 281 326 222 246 279 186 188 192 198 201 203 206 204 217 239 247
277 287 287 281 282 284 280 289 287 276 270 272 274 269 271 275 269 272 290 291 279 279 275 185 237 206 196 224 207 245 242 221 238 250 231 244 252 216 216 219 222 230 234 235
292 273 276 277 280 273 283 283 287 290 290 273 275 265 267 269 273 255 252 258 245 247 226 239 259 252 197 219 252 183 221 222 227 234 226 225 235 237 240 254 246 238 241 242
295 283 281 282 281 276 268 266 269 275 275 268 267 277 273 259 262 241 252 267 263 247 226 247 241 231 212 223 245 207 217 218 226 226 225 249 260 258 245 244 252 258 262 256
278 288 272 260 260 272 263 268 267 272 269 272 273 267 274 270 253 242 222 234 268 282 260 226 230 246 223 244 202 216 228 239 240 226 231 238 240 242 251 256 256 257 257 256
273 272 281 279 273 276 272 264 272 262 268 266 263 263 257 263 257 265 271 245 225 253 256 232 244 249 248 246 194 212 226 233 234 239 237 223 237 254 259 260 261 261 262 261
299 275 263 272 277 281 282 282 266 259 243 247 241 239 245 268 269 241 249 266 270 271 233 225 250 260 260 212 214 220 235 226 213 225 237 260 256 254 255 259 263 261 260 267
290 284 277 279 280 279 271 268 272 268 260 256 256 247 232 227 232 260 268 237 261 273 266 267 268 259 244 234 167 175 189 206 227 239 246 249 254 254 257 259 259 261 261 259
295 292 289 280 275 275 275 277 273 271 271 273 261 242 231 218 221 250 247 254 234 259 268 279 263 281 291 185 223 229 227 238 258 267 266 262 260 260 262 262 263 263 262 263
303 308 310 292 291 303 298 273 261 277 273 268 267 255 243 229 222 241 243 238 248 256 251 243 239 260 261 240 258 250 247 252 261 259 249 250 252 255 257 258 259 261 262 261